SITRO-AIS 5 (KATYS)

Last updated on Mon Sep 21 2026 00:03:45 GMT+0000 (Coordinated Universal Time)

1 57176U 23091L 26263.59478911 .00008957 00000+0 29782-3 0 9993 2 57176 97.4964 328.4826 0012099 121.6190 238.6234 15.31344003178931
UTC large
Height (km)
Speed (km/s)
/
Latitude / Longitude
Inclination (degrees)
Orbital Period (minutes)
Azimuth
Elevation
Range (km)
Doppler Factor

Next 0 passes for location: London (51.5072 / 0.1276)

No passes found over London.
SITRO-AIS 5 (KATYS)